Weather History for Honolulu, HI

Change the Weather History Date:

Tuesday, January 21, 2014

  Actual Average Record
Temperature  
Mean Temperature 74 °F 73 °F  
Max Temperature 81 °F 80 °F 88 °F (1996)
Min Temperature 67 °F 66 °F 57 °F (1969)
Degree Days  
Heating Degree Days 0 0  
Month to date heating degree days 0 0  
Since 1 July heating degree days 0 0  
Cooling Degree Days 9 8  
Month to date cooling degree days 170 170  
Year to date cooling degree days 170 170  
Growing Degree Days 24 (Base 50)    
Moisture  
Dew Point 65 °F    
Average Humidity 74    
Maximum Humidity 90    
Minimum Humidity 58    
Precipitation  
Precipitation 0.18 in 0.07 in 3.85 in (1957)
Month to date precipitation 1.74 1.69  
Year to date precipitation 1.74 1.69  
Snow  
Snow 0.00 in - - ()
Month to date snowfall 0.0  
Since 1 July snowfall 0.0  
Snow Depth 0.00 in    
Sea Level Pressure  
Sea Level Pressure 29.85 in    
Wind  
Wind Speed 10 mph (SW)    
Max Wind Speed 26 mph    
Max Gust Speed 36 mph    
Visibility 9 miles    
Events Rain    
T = Trace of Precipitation, MM = Missing Value Source: NWS Daily Summary

Daily Weather History Graph

Daily Weather History Graph

Search for Another Location

Airport:

Trip Planner

Search our weather history database for the weather conditions in past years. The results will help you decide how hot, cold, wet, or windy it might be!

Date:

Astronomy

Jan. 21, 2014 Rise Set
Actual Time 7:11 AM HST 6:14 PM HST
Civil Twilight 6:47 AM HST 6:38 PM HST
Nautical Twilight 6:20 AM HST 7:05 PM HST
Astronomical Twilight 5:54 AM HST 7:32 PM HST
Moon 11:10 PM HST (1/21) 10:31 AM HST (1/21)
Length of Visible Light 11h 50m
Length of Day
11h 03m
Waning Gibbous, 73% of the Moon is Illuminated
Jan 21
Waning Gibbous
Jan 23
Last Quarter
Jan 30
New
Feb 6
First Quarter
Feb 14
Full

Hourly Weather History & Observations

Time (HST) Temp. Heat Index Dew Point Humidity Pressure Visibility Wind Dir Wind Speed Gust Speed Precip Events Conditions
12:53 AM 71.1 °F - 64.9 °F 81% 29.90 in 10.0 mi Calm Calm - N/A   Scattered Clouds
1:53 AM 70.0 °F - 64.0 °F 81% 29.88 in 10.0 mi Calm Calm - N/A   Partly Cloudy
2:53 AM 68.0 °F - 63.0 °F 84% 29.87 in 10.0 mi Calm Calm - N/A   Partly Cloudy
3:53 AM 68.0 °F - 63.0 °F 84% 29.86 in 10.0 mi Calm Calm - N/A   Partly Cloudy
4:53 AM 66.9 °F - 62.1 °F 84% 29.85 in 10.0 mi Calm Calm - N/A   Partly Cloudy
5:53 AM 68.0 °F - 63.0 °F 84% 29.86 in 10.0 mi North 3.5 mph - N/A   Partly Cloudy
6:53 AM 70.0 °F - 64.0 °F 81% 29.87 in 10.0 mi Variable 4.6 mph - N/A   Partly Cloudy
7:53 AM 75.0 °F - 64.0 °F 69% 29.88 in 10.0 mi SSW 9.2 mph - N/A   Scattered Clouds
8:53 AM 77.0 °F - 64.0 °F 64% 29.90 in 10.0 mi SW 9.2 mph - N/A   Scattered Clouds
9:53 AM 79.0 °F - 64.9 °F 62% 29.91 in 10.0 mi SW 9.2 mph - N/A   Scattered Clouds
10:53 AM 79.0 °F - 64.9 °F 62% 29.91 in 10.0 mi SSW 12.7 mph - N/A   Scattered Clouds
11:53 AM 80.1 °F 81.9 °F 64.9 °F 60% 29.88 in 10.0 mi SSW 11.5 mph - N/A   Scattered Clouds
12:53 PM 81.0 °F 82.7 °F 64.9 °F 58% 29.85 in 10.0 mi SSW 13.8 mph - N/A   Mostly Cloudy
1:53 PM 80.1 °F 82.1 °F 66.0 °F 62% 29.83 in 10.0 mi SSW 13.8 mph - N/A   Mostly Cloudy
2:53 PM 80.1 °F 82.3 °F 66.9 °F 64% 29.81 in 10.0 mi SSW 13.8 mph - N/A   Scattered Clouds
3:53 PM 80.1 °F 82.3 °F 66.9 °F 64% 29.80 in 10.0 mi SSW 12.7 mph - N/A   Scattered Clouds
4:53 PM 79.0 °F - 66.9 °F 66% 29.80 in 10.0 mi SSW 10.4 mph 18.4 mph N/A   Scattered Clouds
5:53 PM 78.1 °F - 66.9 °F 68% 29.81 in 10.0 mi SSW 13.8 mph 19.6 mph N/A   Scattered Clouds
6:53 PM 77.0 °F - 68.0 °F 74% 29.82 in 10.0 mi SSW 13.8 mph 21.9 mph N/A   Scattered Clouds
7:53 PM 77.0 °F - 68.0 °F 74% 29.83 in 10.0 mi SSW 12.7 mph 23.0 mph N/A   Partly Cloudy
8:53 PM 77.0 °F - 68.0 °F 74% 29.83 in 10.0 mi SSW 16.1 mph 23.0 mph N/A   Scattered Clouds
9:53 PM 77.0 °F - 68.0 °F 74% 29.83 in 10.0 mi SSW 17.3 mph 25.3 mph N/A   Scattered Clouds
10:44 PM 71.6 °F - 64.4 °F 78% 29.87 in 2.0 mi WSW 20.7 mph 35.7 mph 0.02 in Rain Heavy Rain
10:53 PM 70.0 °F - 66.0 °F 87% 29.86 in 2.5 mi WSW 16.1 mph 25.3 mph 0.12 in Rain Heavy Rain
10:55 PM 69.8 °F - 66.2 °F 88% 29.86 in 6.0 mi WSW 12.7 mph 23.0 mph 0.02 in Rain Heavy Rain
11:53 PM 70.0 °F - 68.0 °F 93% 29.85 in 9.0 mi SW 15.0 mph 23.0 mph 0.06 in Rain Light Rain